Regional Weather Roundup
Issued by NWS Charleston, WV

Home | Current Version | Previous Version | Graphics & Text | Print | Product List | Glossary On
Versions: 1 2 3 4 5 6 7 8 9 10 11 12 13 14 15 16 17 18 19 20 21 22 23 24 25 26 27 28 29 30 31 32 33 34 35 36 37 38 39 40 41 42 43 44 45 46 47 48 49 50
000
ASUS41 KRLX 140710
RWRRLX
West Virginia Regional Weather Roundup
National Weather Service Charleston WV
200 AM EST SUN FEB 14 2016

Note: "fair" indicates few or no clouds below 12,000 feet with no
significant weather and/or obstructions to visibility.

WVZ003-140800-
Northern Panhandle of West Virginia

CITY           SKY/WX    TMP DP  RH WIND       PRES   REMARKS
WHEELING         N/A      6   1  80 SW3       30.42R
$$

WVZ009-140800-
Northwest West Virginia

CITY           SKY/WX    TMP DP  RH WIND       PRES   REMARKS
PARKERSBURG      N/A      3  -3  76 CALM      30.50S
$$

WVZ006-140800-
Western West Virginia

CITY           SKY/WX    TMP DP  RH WIND       PRES   REMARKS
HUNTINGTON       N/A      9   0  67 CALM      30.48S
$$

WVZ015-140800-
West Central West Virginia

CITY           SKY/WX    TMP DP  RH WIND       PRES   REMARKS
CHARLESTON       N/A      6  -1  73 CALM      30.46S
$$

WVZ022-031-140800-
North Central West Virginia

CITY           SKY/WX    TMP DP  RH WIND       PRES   REMARKS
CLARKSBURG     CLOUDY     8  -4  58 CALM      30.43S
MORGANTOWN     NOT AVBL
$$

WVZ025-035-042-045-140800-
Southern West Virginia

CITY           SKY/WX    TMP DP  RH WIND       PRES   REMARKS
BECKLEY          N/A      1  -7  68 SW3       30.30S
LOGAN            N/A      9  -2  61 CALM      30.39S
BLUEFIELD        N/A      2  -7  66 CALM      30.27R
LEWISBURG        N/A      5  -5  63 CALM      30.30S
$$

WVZ047-140800-
Northern Mountains of West Virginia

CITY           SKY/WX    TMP DP  RH WIND       PRES   REMARKS
ELKINS           N/A     -2  -9  72 CALM      30.35S
$$

WVZ052-140800-
Eastern Panhandle of West Virginia

CITY           SKY/WX    TMP DP  RH WIND       PRES   REMARKS
MARTINSBURG      N/A     10  -4  53 W9        30.43S WCI  -3
PETERSBURG     MOCLDY    12  -3  51 CALM      30.42F
$$



USA.gov is the U.S. government's official web portal to all federal, state and local government web resources and services.